HJS-7A

Last updated on Fri Oct 17 2025 00:02:05 GMT+0000 (Coordinated Universal Time)

1 65617U 25209A 25288.55843660 -.00000017 00000+0 60997-4 0 9998 2 65617 49.9977 214.7533 0001767 260.5916 99.4797 14.24487760 4212

Satellite not in orbit

HJS-7A